This demonstration page uses our WeatherBlox Daily Observations layout. Learn more.

Left ArrowRight Arrow

47.50024, -111.30081

Hourly Observations for April 8, 2016

Temp ( °F °C ) Dew Point ( °F °C ) Humidity (%) Winds ( mph kmh ) Pressure ( in mb ) Visibility ( mi km ) Precip ( " mm )
12:53 am 00:53 Clear 41 5 28 -2.2 60 60 Calm 30.16 1021 10 16 0.00 0.00
1:53 am 01:53 Clear 37 2.8 27 -2.8 67 67 NW 3 6 30.17 1022 10 16 0.00 0.00
2:53 am 02:53 Clear 35 1.7 27 -2.8 72 72 Calm 30.16 1021 10 16 0.00 0.00
3:53 am 03:53 Clear 32 0 27 -2.8 82 82 Calm 30.15 1021 10 16 0.00 0.00
4:53 am 04:53 Clear 35 1.7 28 -2.2 76 76 SW 5 7 30.14 1021 10 16 0.00 0.00
5:53 am 05:53 Clear 33 0.6 27 -2.8 78 78 Calm 30.13 1020 10 16 0.00 0.00
6:53 am 06:53 Sunny 33 0.6 28 -2.2 82 82 WSW 3 6 30.13 1020 10 16 0.00 0.00
7:53 am 07:53 Sunny 39 3.9 33 0.6 79 79 Calm 30.11 1020 10 16 0.00 0.00
8:53 am 08:53 Sunny 48 8.9 33 0.6 56 56 SSW 5 7 30.09 1019 10 16 0.00 0.00
9:53 am 09:53 Sunny 53 11.7 34 1.1 48 48 E 3 6 30.07 1018 10 16 0.00 0.00
10:53 am 10:53 Sunny 58 14.4 35 1.7 42 42 VRB 3 6 30.04 1017 10 16 0.00 0.00
11:53 am 11:53 Sunny 64 17.8 33 0.6 32 32 SSW 6 9 30.00 1016 10 16 0.00 0.00
12:53 pm 12:53 Sunny 70 21.1 28 -2.2 21 21 SSW 12 19 29.94 1014 10 16 0.00 0.00
1:53 pm 13:53 Sunny 74 23.3 23 -5 15 15 SSW 10 17 29.91 1013 10 16 0.00 0.00
2:53 pm 14:53 Sunny 75 23.9 20 -6.7 12 12 SW 13 20 29.87 1011 10 16 0.00 0.00
3:53 pm 15:53 Sunny 75 23.9 23 -5 14 14 SSW 10 17 29.84 1011 10 16 0.00 0.00
4:53 pm 16:53 Sunny 77 25 23 -5 13 13 SW 8 13 29.79 1009 10 16 0.00 0.00
5:53 pm 17:53 Sunny 76 24.4 24 -4.4 14 14 SSW 12 19 29.76 1008 10 16 0.00 0.00
6:53 pm 18:53 Sunny 73 22.8 27 -2.8 18 18 SSW 13 20 29.74 1007 10 16 0.00 0.00
7:53 pm 19:53 Sunny 65 18.3 29 -1.7 26 26 SW 13 20 29.72 1006 10 16 0.00 0.00
8:53 pm 20:53 Clear 57 13.9 28 -2.2 33 33 SW 13 20 29.70 1006 10 16 0.00 0.00
9:53 pm 21:53 Clear 52 11.1 27 -2.8 38 38 SW 12 19 29.70 1006 10 16 0.00 0.00
10:53 pm 22:53 Clear 51 10.6 28 -2.2 41 41 SSW 14 22 29.67 1005 10 16 0.00 0.00
11:53 pm 23:53 Clear 54 12.2 27 -2.8 35 35 SSW 14 22 29.61 1003 10 16 0.00 0.00

Powered by AerisWeather